Weather History for Columbia Airport, CA

Change the Weather History Date:

Wednesday, August 21, 2013

  Actual Average (KMOD) Record (KMOD)
Temperature  
Mean Temperature 76 °F -  
Max Temperature 91 °F 93 °F 101 °F (1945)
Min Temperature 62 °F 62 °F 50 °F (1944)
Degree Days  
Heating Degree Days 0 0  
Month to date heating degree days 0  
Since 1 June heating degree days 3  
Since 1 July heating degree days 0  
Cooling Degree Days 12 13  
Month to date cooling degree days 282  
Year to date cooling degree days 1217  
Since 1 June cooling degree days 1018  
Growing Degree Days 26 (Base 50)    
Moisture  
Dew Point 46 °F    
Average Humidity 39    
Maximum Humidity 68    
Minimum Humidity 13    
Precipitation  
Precipitation 0.00 in 0.00 in 0.09 in (2003)
Month to date precipitation 0.01  
Year to date precipitation 8.76  
Since 1 July precipitation 0.01  
Snow  
Snow 0.00 in - - ()
Month to date snowfall  
Since 1 June snowfall  
Since 1 July snowfall  
Snow Depth -    
Sea Level Pressure  
Sea Level Pressure 29.92 in    
Wind  
Wind Speed 3 mph (SSW)    
Max Wind Speed 8 mph    
Max Gust Speed -    
Visibility 10 miles    
Events      
T = Trace of Precipitation, MM = Missing Value Source: NWS Daily Summary

Daily Weather History Graph

Daily Weather History Graph

Search for Another Location

Airport:

Trip Planner

Search our weather history database for the weather conditions in past years. The results will help you decide how hot, cold, wet, or windy it might be!

Date:

Astronomy

Aug. 21, 2013 Rise Set
Actual Time 6:22 AM PDT 7:46 PM PDT
Civil Twilight 5:54 AM PDT 8:13 PM PDT
Nautical Twilight 5:21 AM PDT 8:47 PM PDT
Astronomical Twilight 4:46 AM PDT 9:21 PM PDT
Moon 8:00 PM PDT 7:06 AM PDT
Length of Visible Light 14h 19m
Length of Day
13h 24m
Full, 99% of the Moon is Illuminated
Aug 21
Full
Aug 28
Last Quarter
Sep 5
New
Sep 12
First Quarter
Sep 19
Full

Hourly Weather History & Observations

Time (PDT) Temp. Heat Index Dew Point Humidity Pressure Visibility Wind Dir Wind Speed Gust Speed Precip Events Conditions
12:15 AM 71.6 °F - 50.0 °F 46% 29.91 in 10.0 mi NW 4.6 mph - N/A   Overcast
12:35 AM 69.8 °F - 50.0 °F 49% 29.91 in 10.0 mi WNW 4.6 mph - N/A   Overcast
12:55 AM 68.0 °F - 50.0 °F 52% 29.91 in 10.0 mi Calm Calm - N/A   Overcast
1:15 AM 68.0 °F - 50.0 °F 52% 29.91 in 10.0 mi Calm Calm - N/A   Overcast
1:35 AM 66.2 °F - 50.0 °F 56% 29.91 in 10.0 mi Calm Calm - N/A   Overcast
1:55 AM 66.2 °F - 51.8 °F 60% 29.91 in 10.0 mi Calm Calm - N/A   Overcast
2:15 AM 66.2 °F - 51.8 °F 60% 29.91 in 10.0 mi NE 3.5 mph - N/A   Overcast
2:35 AM 66.2 °F - 51.8 °F 60% 29.91 in 10.0 mi Calm Calm - N/A   Overcast
2:55 AM 66.2 °F - 50.0 °F 56% 29.91 in 10.0 mi Calm Calm - N/A   Overcast
3:15 AM 64.4 °F - 51.8 °F 64% 29.91 in 10.0 mi Calm Calm - N/A   Overcast
3:35 AM 64.4 °F - 51.8 °F 64% 29.91 in 10.0 mi NNE 3.5 mph - N/A   Overcast
3:55 AM 64.4 °F - 51.8 °F 64% 29.91 in 10.0 mi NE 3.5 mph - N/A   Overcast
4:15 AM 64.4 °F - 50.0 °F 59% 29.90 in 10.0 mi Calm Calm - N/A   Overcast
4:35 AM 64.4 °F - 50.0 °F 59% 29.90 in 10.0 mi Calm Calm - N/A   Overcast
4:55 AM 64.4 °F - 51.8 °F 64% 29.90 in 10.0 mi NE 3.5 mph - N/A   Overcast
5:15 AM 64.4 °F - 51.8 °F 64% 29.90 in 10.0 mi Calm Calm - N/A   Overcast
5:35 AM 64.4 °F - 51.8 °F 64% 29.90 in 10.0 mi NE 3.5 mph - N/A   Mostly Cloudy
5:55 AM 62.6 °F - 51.8 °F 68% 29.91 in 10.0 mi Calm Calm - N/A   Partly Cloudy
6:15 AM 62.6 °F - 51.8 °F 68% 29.91 in 10.0 mi NE 4.6 mph - N/A   Clear
6:35 AM 62.6 °F - 51.8 °F 68% 29.91 in 10.0 mi Calm Calm - N/A   Clear
6:55 AM 64.4 °F - 53.6 °F 68% 29.92 in 10.0 mi Calm Calm - N/A   Clear
7:15 AM 64.4 °F - 53.6 °F 68% 29.92 in 10.0 mi Calm Calm - N/A   Clear
7:35 AM 68.0 °F - 53.6 °F 60% 29.93 in 8.0 mi Calm Calm - N/A   Clear
7:55 AM 69.8 °F - 55.4 °F 60% 29.93 in 7.0 mi Calm Calm - N/A   Clear
8:15 AM 73.4 °F - 55.4 °F 53% 29.94 in 7.0 mi Calm Calm - N/A   Clear
8:35 AM 75.2 °F - 53.6 °F 47% 29.94 in 8.0 mi Calm Calm - N/A   Clear
8:55 AM 77.0 °F - 53.6 °F 44% 29.94 in 8.0 mi Calm Calm - N/A   Clear
9:15 AM 80.6 °F 80.3 °F 53.6 °F 39% 29.94 in 8.0 mi Calm Calm - N/A   Clear
9:35 AM 82.4 °F 81.4 °F 53.6 °F 37% 29.94 in 9.0 mi South 3.5 mph - N/A   Clear
9:55 AM 82.4 °F - 51.8 °F 35% 29.94 in 8.0 mi SSW 5.8 mph - N/A   Clear
10:15 AM 80.6 °F - 51.8 °F 37% 29.95 in 10.0 mi SSW 5.8 mph - N/A   Clear
10:35 AM 82.4 °F - 50.0 °F 32% 29.95 in 9.0 mi SSW 5.8 mph - N/A   Clear
10:55 AM 82.4 °F - 50.0 °F 32% 29.95 in 8.0 mi SSW 4.6 mph - N/A   Clear
11:15 AM 86.0 °F - 48.2 °F 27% 29.95 in 8.0 mi South 8.1 mph - N/A   Clear
11:35 AM 86.0 °F - 46.4 °F 25% 29.95 in 10.0 mi SSW 4.6 mph - N/A   Clear
11:55 AM 87.8 °F - 46.4 °F 24% 29.95 in 10.0 mi SSW 5.8 mph - N/A   Clear
12:15 PM 87.8 °F - 46.4 °F 24% 29.95 in 10.0 mi SSW 5.8 mph - N/A   Clear
12:35 PM 86.0 °F - 48.2 °F 27% 29.95 in 10.0 mi South 4.6 mph - N/A   Clear
12:55 PM 87.8 °F - 48.2 °F 25% 29.94 in 10.0 mi South 6.9 mph - N/A   Clear
1:15 PM 89.6 °F - 48.2 °F 24% 29.94 in 10.0 mi South 5.8 mph - N/A   Clear
1:35 PM 89.6 °F - 46.4 °F 22% 29.94 in 10.0 mi WSW 6.9 mph - N/A   Clear
1:55 PM 89.6 °F - 46.4 °F 22% 29.94 in 10.0 mi SSE 4.6 mph - N/A   Clear
2:15 PM 89.6 °F - 46.4 °F 22% 29.93 in 10.0 mi SW 8.1 mph - N/A   Clear
2:35 PM 91.4 °F - 42.8 °F 18% 29.92 in 10.0 mi SSW 4.6 mph - N/A   Clear
2:55 PM 91.4 °F - 39.2 °F 16% 29.91 in 10.0 mi SSW 6.9 mph - N/A   Clear
3:15 PM 91.4 °F - 41.0 °F 17% 29.91 in 10.0 mi West 8.1 mph - N/A   Clear
3:35 PM 89.6 °F - 37.4 °F 16% 29.91 in 10.0 mi South 6.9 mph - N/A   Clear
3:55 PM 89.6 °F - 37.4 °F 16% 29.91 in 10.0 mi SSW 8.1 mph - N/A   Clear
4:15 PM 91.4 °F - 35.6 °F 14% 29.91 in 10.0 mi South 3.5 mph - N/A   Clear
4:35 PM 89.6 °F - 33.8 °F 14% 29.90 in 10.0 mi SSW 6.9 mph - N/A   Clear
4:55 PM 89.6 °F - 32.0 °F 13% 29.90 in 10.0 mi SSE 3.5 mph - N/A   Clear
5:15 PM 89.6 °F - 32.0 °F 13% 29.90 in 10.0 mi WSW 3.5 mph - N/A   Clear
5:35 PM 89.6 °F - 33.8 °F 14% 29.89 in 10.0 mi SW 4.6 mph - N/A   Clear
5:55 PM 89.6 °F - 32.0 °F 13% 29.90 in 10.0 mi West 6.9 mph - N/A   Clear
6:15 PM 89.6 °F - 32.0 °F 13% 29.90 in 10.0 mi West 6.9 mph - N/A   Clear
6:35 PM 86.0 °F - 32.0 °F 14% 29.90 in 10.0 mi WSW 5.8 mph - N/A   Clear
6:55 PM 86.0 °F - 37.4 °F 18% 29.90 in 10.0 mi WSW 5.8 mph - N/A   Clear
7:15 PM 84.2 °F - 39.2 °F 20% 29.90 in 10.0 mi West 6.9 mph - N/A   Clear
7:35 PM 80.6 °F - 41.0 °F 24% 29.91 in 10.0 mi Calm Calm - N/A   Clear
7:55 PM 77.0 °F - 42.8 °F 29% 29.91 in 10.0 mi NE 4.6 mph - N/A   Clear
8:15 PM 75.2 °F - 41.0 °F 29% 29.91 in 10.0 mi NE 3.5 mph - N/A   Clear
8:35 PM 73.4 °F - 41.0 °F 31% 29.92 in 10.0 mi NNE 3.5 mph - N/A   Clear
8:55 PM 71.6 °F - 42.8 °F 35% 29.92 in 10.0 mi NNW 3.5 mph - N/A   Clear
9:15 PM 69.8 °F - 42.8 °F 38% 29.92 in 10.0 mi Calm Calm - N/A   Clear
9:35 PM 68.0 °F - 42.8 °F 40% 29.93 in 10.0 mi Calm Calm - N/A   Partly Cloudy
9:55 PM 68.0 °F - 42.8 °F 40% 29.92 in 10.0 mi Calm Calm - N/A   Mostly Cloudy
10:15 PM 66.2 °F - 44.6 °F 46% 29.93 in 10.0 mi Calm Calm - N/A   Overcast
10:35 PM 66.2 °F - 42.8 °F 43% 29.92 in 10.0 mi NE 3.5 mph - N/A   Overcast
10:55 PM 66.2 °F - 42.8 °F 43% 29.93 in 10.0 mi ENE 3.5 mph - N/A   Overcast
11:15 PM 64.4 °F - 42.8 °F 45% 29.93 in 10.0 mi NE 3.5 mph - N/A   Mostly Cloudy
11:35 PM 64.4 °F - 42.8 °F 45% 29.93 in 10.0 mi Calm Calm - N/A   Mostly Cloudy
11:55 PM 62.6 °F - 42.8 °F 48% 29.93 in 10.0 mi Calm Calm - N/A   Scattered Clouds